Date,TemperatureHighF,TemperatureAvgF,TemperatureLowF,DewpointHighF,DewpointAvgF,DewpointLowF,HumidityHigh,HumidityAvg,HumidityLow,PressureMaxIn,PressureMinIn,WindSpeedMaxMPH,WindSpeedAvgMPH,GustSpeedMaxMPH,PrecipitationSumIn
2013-4-1,67.5,52.9,45.3,53.5,47.7,44.0,97,84,56,30.14,29.96,7,0,9,0.00
2013-4-2,58.6,51.0,46.5,51.7,47.7,44.5,95,88,76,30.18,30.13,6,0,6,0.00
2013-4-3,61.6,53.1,45.7,50.3,46.6,43.3,94,79,63,30.17,29.91,4,0,4,0.00
2013-4-4,56.2,51.1,47.5,54.2,49.0,45.4,97,93,88,29.91,29.62,8,0,9,0.27
2013-4-5,58.0,51.6,47.7,52.5,49.7,46.6,97,94,80,29.86,29.70,11,1,11,0.98
2013-4-6,55.3,48.3,43.2,48.5,45.5,42.1,97,90,71,29.91,29.69,13,1,13,0.52
2013-4-7,50.0,43.8,39.1,44.9,41.6,38.3,97,92,78,29.87,29.47,11,1,11,1.14
2013-4-8,56.7,45.9,36.3,47.3,42.0,35.4,98,87,65,30.25,29.87,7,0,7,0.00
2013-4-9,55.9,47.4,36.6,45.8,41.8,35.8,98,82,61,30.33,30.17,5,0,6,0.00
2013-4-10,56.1,51.2,44.6,50.6,45.2,40.3,96,80,64,30.24,29.93,18,2,19,0.41
2013-4-11,59.6,48.5,39.9,46.2,40.4,35.7,96,75,49,30.27,30.16,10,1,10,0.00
2013-4-12,47.4,42.1,36.6,43.6,38.8,34.2,96,88,72,30.17,29.69,11,0,13,0.22
2013-4-13,50.4,42.1,36.4,45.1,38.6,32.9,95,87,78,29.98,29.79,14,1,14,0.33
2013-4-14,53.1,41.9,34.5,46.6,39.2,33.5,97,91,65,29.99,29.91,5,0,7,0.45
2013-4-15,58.7,44.0,32.7,46.8,39.4,32.2,99,86,50,30.16,29.92,6,0,6,0.03
2013-4-16,59.7,45.1,33.5,46.6,39.0,33.0,98,82,49,30.37,30.16,13,0,13,0.01
2013-4-17,62.2,46.6,32.9,44.6,38.1,31.6,96,75,43,30.44,30.37,10,1,10,0.00
2013-4-18,54.5,47.9,42.0,48.5,43.8,38.0,95,86,72,30.43,30.21,8,0,8,0.04
2013-4-19,55.7,50.7,46.7,53.2,48.4,45.1,96,92,80,30.21,30.04,11,1,12,0.33
2013-4-20,58.4,50.3,44.7,48.5,44.9,42.8,95,82,61,30.26,30.20,11,1,11,0.00
2013-4-21,57.9,47.9,40.2,46.8,42.8,39.0,97,84,55,30.33,30.19,9,1,9,0.03
2013-4-22,62.4,47.9,34.1,46.7,36.5,25.5,99,70,28,30.49,30.33,11,1,12,0.00
2013-4-23,64.8,49.0,32.1,45.0,34.2,26.2,93,61,27,30.40,30.20,7,0,9,0.00
2013-4-24,70.3,53.4,34.5,47.2,38.6,32.1,94,62,30,30.29,30.03,7,0,7,0.00
2013-4-25,73.3,56.8,39.0,48.8,43.2,36.8,94,64,33,30.13,30.01,7,0,7,0.00
2013-4-26,73.3,55.7,43.0,55.1,44.2,30.0,96,70,26,30.23,30.13,9,0,9,0.00
2013-4-27,58.1,53.6,50.3,50.0,44.3,37.2,94,72,55,30.21,30.15,9,1,9,0.01
2013-4-28,60.4,52.3,47.5,50.7,45.5,40.1,96,80,49,30.20,29.92,13,1,13,0.20
2013-4-29,56.6,49.0,40.3,47.9,37.5,31.1,96,66,42,30.13,29.91,22,3,22,0.01
2013-4-30,59.2,46.8,32.9,41.1,34.4,29.8,94,65,35,30.42,30.13,6,0,7,0.00